Location: Northcutt
(34.7304°N, 84.4305°W)
Time: 05:08:56
(UTC+00:00)

Vanguard 2 - Pass Details

Date: 03 October 2022
Orbit: 553 x 2933 km, 32.9° (Epoch: 05 December)

Event Time Altitude Azimuth Distance (km) Brightness Sun altitude
Rises 18:55:06 0° 251° (WSW) 4,669 12.0 45.9°
Reaches altitude 10° 18:57:44 10° 250° (WSW) 3,951 11.9 45.6°
Maximum altitude 19:09:01 77° 166° (SSE) 2,380 11.0 44.2°
Drops below altitude 10° 19:26:09 10° 84° (E) 5,713 11.7 42.0°
Sets 19:30:48 0° 84° (E) 6,785 12.0 41.4°
